Toluca Jose Maria, Mexico

10:54 PM CST on February 12, 2016 (GMT -0600)
Lic Adolfo Lopez Mateos International

Weather History for MMTO - August, 2014

Change the Weather History Date:

Sunday, August 10, 2014

  Actual Average Record
Temperature  
Mean Temperature 60 °F -  
Max Temperature 73 °F 69 °F 75 °F (2004)
Min Temperature 48 °F 47 °F 41 °F (1998)
Degree Days  
Heating Degree Days 4    
Growing Degree Days 10 (Base 50)    
Moisture  
Dew Point 47 °F    
Average Humidity 70    
Maximum Humidity 94    
Minimum Humidity 33    
Precipitation  
Precipitation 0.45 in - - ()
Sea Level Pressure  
Sea Level Pressure 30.23 in    
Wind  
Wind Speed 4 mph ()    
Max Wind Speed 13 mph    
Max Gust Speed -    
Visibility 3.9 miles    
Events Rain    
Averages and records for this station are not official NWS values.
T = Trace of Precipitation, MM = Missing Value Source: Averaged Metar Reports

Daily Weather History Graph

Daily Weather History Graph

Search for Another Location

Airport or City:

Trip Planner

Search our weather history database for the weather conditions in past years. The results will help you decide how hot, cold, wet, or windy it might be!

Date:

Astronomy

Aug. 10, 2014 Rise Set
Actual Time 7:17 AM CDT 8:09 PM CDT
Civil Twilight 6:54 AM CDT 8:32 PM CDT
Nautical Twilight 6:27 AM CDT 8:59 PM CDT
Astronomical Twilight 5:59 AM CDT 9:26 PM CDT
Moon 8:08 PM CDT (8/10) 7:05 AM CDT (8/10)
Length of Visible Light 13h 37m
Length of Day
12h 51m
Full, 100% of the Moon is Illuminated
Aug 10
Full
Aug 10
Full
Aug 17
Last Quarter
Aug 25
New
Sep 2
First Quarter

Hourly Weather History & Observations

Time (CDT) Temp. Dew Point Humidity Pressure Visibility Wind Dir Wind Speed Gust Speed Precip Events Conditions
12:40 AM 51.8 °F 46.4 °F 82% 29.86 in 4.0 mi South 4.6 mph - N/A   Scattered Clouds
1:40 AM 51.8 °F 46.4 °F 82% 30.44 in 4.0 mi ESE 4.6 mph - N/A   Mostly Cloudy
2:40 AM 50.0 °F 46.4 °F 87% 30.42 in 3.0 mi Calm Calm - N/A   Haze
3:40 AM 50.0 °F 46.4 °F 87% 29.85 in 3.0 mi Calm Calm - N/A   Haze
4:42 AM 51.8 °F 48.2 °F 88% 30.40 in 2.0 mi Calm Calm - N/A Rain Rain
5:41 AM 50.0 °F 48.2 °F 94% 30.41 in 2.0 mi Calm Calm - N/A   Overcast
6:16 AM 50.0 °F 46.4 °F 87% 30.40 in 1.5 mi Calm Calm - N/A   Mostly Cloudy
6:32 AM 48.2 °F 46.4 °F 93% 30.40 in 1.5 mi North 3.5 mph - N/A   Scattered Clouds
6:42 AM 48.2 °F 46.4 °F 93% 29.91 in 1.5 mi NE 3.5 mph - N/A   Scattered Clouds
7:30 AM 50.0 °F 48.2 °F 94% - 1.5 mi Calm Calm - N/A   Overcast
7:45 AM 50.0 °F 48.2 °F 94% - 1.5 mi Calm Calm - N/A   Mostly Cloudy
8:30 AM 51.8 °F 48.2 °F 88% 30.43 in 2.0 mi WNW 4.6 mph - N/A   Scattered Clouds
8:45 AM 51.8 °F 50.0 °F 94% 30.44 in 2.0 mi SW 5.8 mph - N/A   Scattered Clouds
9:42 AM 55.4 °F 48.2 °F 77% 29.95 in 2.0 mi Calm Calm - N/A   Scattered Clouds
10:46 AM 60.8 °F 48.2 °F 63% 30.45 in 3.0 mi West 3.5 mph - N/A   Scattered Clouds
11:46 AM 64.4 °F 46.4 °F 52% 30.45 in 3.0 mi East 4.6 mph - N/A   Haze
12:48 PM 68.0 °F 44.6 °F 43% 29.84 in 6.0 mi East 8.1 mph - N/A   Mostly Cloudy
1:45 PM 71.6 °F 42.8 °F 35% 30.41 in 6.0 mi East 12.7 mph - N/A   Mostly Cloudy
2:42 PM 71.6 °F 41.0 °F 33% 30.39 in 6.0 mi ENE 9.2 mph - N/A   Mostly Cloudy
3:45 PM 73.4 °F 42.8 °F 33% 29.75 in 7.0 mi East 10.4 mph - N/A   Mostly Cloudy
4:40 PM 71.6 °F 41.0 °F 33% 30.32 in 7.0 mi ENE 10.4 mph - N/A   Mostly Cloudy
5:45 PM 71.6 °F 48.2 °F 43% 30.30 in 7.0 mi SE 11.5 mph - N/A   Mostly Cloudy
6:42 PM 64.4 °F 48.2 °F 56% 29.79 in 7.0 mi SSE 11.5 mph - N/A   Mostly Cloudy
7:46 PM 60.8 °F 50.0 °F 68% 30.33 in 5.0 mi SE 8.1 mph - N/A   Mostly Cloudy
8:42 PM 59.0 °F 46.4 °F 63% 30.36 in 5.0 mi NE 5.8 mph - N/A   Mostly Cloudy
9:47 PM 57.2 °F 46.4 °F 67% 29.86 in 5.0 mi West 6.9 mph - N/A   Mostly Cloudy
10:42 PM 57.2 °F 46.4 °F 67% 30.41 in 5.0 mi West 4.6 mph - N/A   Mostly Cloudy
11:41 PM 55.4 °F 48.2 °F 77% 30.44 in 5.0 mi WSW 4.6 mph - N/A   Mostly Cloudy